Regional Weather Roundup
Issued by NWS

Home | Current Version | Previous Version | Graphics & Text | Print | Product List | Glossary Off
Versions: 1 2 3 4 5 6 7 8 9 10 11 12 13 14 15 16 17 18 19 20 21 22 23 24 25 26 27 28 29 30 31 32 33 34 35 36 37 38 39 40 41 42 43 44 45 46 47 48 49 50

000
ASUS43 KDMX 281906
RWRIA

WEATHER ROUNDUP FOR IOWA
NATIONAL WEATHER SERVICE DES MOINES IA
200 PM CDT SUN MAY 28 2017

NOTE: "FAIR" INDICATES FEW OR NO CLOUDS BELOW 12,000 FEET WITH NO
SIGNIFICANT WEATHER AND/OR OBSTRUCTIONS TO VISIBILITY.

* - THESE STATIONS ARE NOT NWS STATIONS...THUS NOT UNDER NWS
QUALITY CONTROL.  THEY ALSO DO NOT REPORT WEATHER SUCH
AS PRECIPITATION OR FOG.

IAZ001>003-012>014-020>022-031>034-043>046-282000-
   NORTHWEST IOWA

CITY           SKY/WX    TMP DP  RH WIND       PRES   REMARKS
CARROLL *      MOSUNNY   79  46  31 W21G26    29.84F
CHEROKEE *     SUNNY     74  44  34 NW14G22   29.85F
DENISON *      MOSUNNY   75  45  33 W15G26    29.87F
LE MARS *      SUNNY     75  39  27 W20G35    29.89S
ORANGE CITY *  MOSUNNY   72  52  49 NW15G22   29.88S
SHELDON *      MOSUNNY   73  39  29 W16       29.85S
SIOUX CITY     MOSUNNY   77  47  34 NW22G28   29.88S
SPENCER        MOSUNNY   73  45  36 W15G21    29.85F
STORM LAKE *     N/A     75  39  27 NW21      29.85F
$$

IAZ055>058-069>071-079>083-090>094-282000-
   SOUTHWEST IOWA

CITY           SKY/WX    TMP DP  RH WIND       PRES   REMARKS
ATLANTIC *     SUNNY     77  50  38 W14G22    29.87F
AUDUBON *      MOSUNNY   75  46  35 W6G21     29.87F
CLARINDA *     SUNNY     77  48  36 W7G17     29.93S
COUNCIL BLFS * SUNNY     77  50  38 MISG      29.89F
CRESTON *      SUNNY     75  48  38 NW14G26   29.91S
HARLAN  *      MOSUNNY   77  48  36 W18G29    29.90F
LAMONI         SUNNY     77  48  35 NW17      29.90S
RED OAK *      SUNNY     77  48  36 W13G21    29.90F
SHENANDOAH *   SUNNY     77  52  41 W16       29.92F
$$

IAZ047>049-059>061-072>074-084-282000-
   CENTRAL IOWA

CITY           SKY/WX    TMP DP  RH WIND       PRES   REMARKS
AMES           MOSUNNY   76  52  43 W17       29.83F
ANKENY *       SUNNY     77  50  38 W13       29.85F
BOONE *        MOSUNNY   77 -33   1 W17G24    29.83S
CHARITON *     SUNNY     75  48  38 W13       29.87S
DES MOINES     MOSUNNY   78  50  37 SW13G20   29.84F
GRINNELL*      SUNNY     74  49  40 W12       29.85S
KNOXVILLE *    SUNNY     75  48  38 W12G18    29.84F
MARSHALLTOWN   SUNNY     75  52  44 NW13G23   29.81F
NEWTON *       SUNNY     75  50  41 NW12      29.83F
PELLA *        SUNNY     76  49  39 W9        29.86S
PERRY *          N/A     77  45  32 W18G24    29.85S
$$

IAZ004>006-015-016-023>025-035-036-282000-
   NORTH CENTRAL IOWA

CITY           SKY/WX    TMP DP  RH WIND       PRES   REMARKS
ALGONA *       MOSUNNY   73  41  31 NW18G25   29.83S
CLARION *      MOSUNNY   77  41  27 NW21G29   29.81F
ESTHERVILLE    PTSUNNY   72  44  36 W20       29.83F
FORT DODGE *   MOSUNNY   75  46  35 W15G21    29.83F
MASON CITY     MOSUNNY   74  41  30 NW25G32   29.82S
FOREST CITY *    N/A     75  25  15 NW18G28   29.81S
WEBSTER CITY * SUNNY     77  43  29 NW20G25   29.80F
IOWA FALLS *     N/A     78  45  31 W16G30    29.82F
$$

IAZ007>011-017>019-026>030-037>042-050>054-066-282000-
   NORTHEAST IOWA

CITY           SKY/WX    TMP DP  RH WIND       PRES   REMARKS
CEDAR RAPIDS   SUNNY     75  53  46 NW15G24   29.80S
CHARLES CITY * SUNNY     75  39  27 NW23G32   29.79F
CLINTON *      PTSUNNY   74  58  57 W18       29.78
DECORAH *      SUNNY     72  43  35 NW14G26   29.75F
DUBUQUE        PTSUNNY   73  55  53 W17       29.77F
MONTICELLO *   MOSUNNY   75  50  41 W16G22    29.78S
OELWEIN *      MOSUNNY   75  43  31 W25       29.78F
WATERLOO       MOSUNNY   76  45  33 W18G30    29.78F
$$

IAZ064-065-067-068-078-282000-
   EAST CENTRAL IOWA

CITY           SKY/WX    TMP DP  RH WIND       PRES   REMARKS
DAVENPORT      MOSUNNY   74  54  49 W14G22    29.79F
IOWA CITY      MOSUNNY   75  54  47 W13G22    29.82S
MT. PLEASANT * SUNNY     76  49  38 W15G23    29.83S
MUSCATINE *    MOSUNNY   77  55  47 W14G20    29.81S
QUAD CITIES    MOSUNNY   77  55  46 W13       29.78F
$$

IAZ062-063-075>077-085>089-095>099-282000-
   SOUTHEAST IOWA

CITY           SKY/WX    TMP DP  RH WIND       PRES   REMARKS
BURLINGTON     MOSUNNY   77  55  46 W13G20    29.82S
FAIRFIELD *    MOSUNNY   77  52  41 W16G26    29.83S
FORT MADISON * MOSUNNY   79  54  41 NW14      29.83F
KEOKUK *       MOSUNNY   77  54  44 W13       29.83S
OSKALOOSA *      N/A     78  45  31 NW17G25   29.85S
CENTERVILLE *    N/A     77  50  38 W18       29.88S
OTTUMWA        MOSUNNY   76  52  43 W17G23    29.84S
WASHINGTON *   MOSUNNY   75  54  46 W18G25    29.83S
$$

ABBREVIATIONS USED IN REMARKS
   TC - TEMPERATURES IN CELSIUS
  WCI - WIND CHILL INDEX
   HX - HEAT INDEX
  VSB - VISIBILITY
$$





USA.gov is the U.S. government's official web portal to all federal, state and local government web resources and services.